Terminal Aerodrome Forecast
Issued by NWS

Home | Current Version | Previous Version | Text Only | Print | Product List | Glossary On
Versions: 1 2 3 4 5 6 7 8 9 10 11 12 13 14 15 16 17 18 19
312
FTUS43 KDLH 240525
TAFBRD
TAF
KBRD 240525Z 2406/2506 16006KT P6SM SCT045 BKN250
     FM241200 26005KT P6SM BKN070
     FM241400 28008KT P6SM SCT070
     FM241800 26013G23KT P6SM SCT040
     FM250000 26004KT P6SM SKC=

USA.gov is the U.S. government's official web portal to all federal, state and local government web resources and services.